Powrót do katalogu

STARLINK-35023

AktywnyŁącznośćSSO
NORAD 65279·PAYLOAD·🇺🇸 United States

Wystrzelony Aug 22, 2025 z Vandenberg Space Force Base

Loading…

Następne Przeloty (najbliższe 24 godziny)

TLE

ŚwieżeSource: CelesTrak SupGP

Epoka: Sep 14, 2026, 20:51 UTC

1 65279C 25184G   26257.86923611 -.00013636  00000+0 -42336-3 0  2575
2 65279  97.2835 305.8862 0001158  95.1046 107.9181 15.33442248    11

Śledź STARLINK-35023 w czasie rzeczywistym z AllMySat

Download on the App Store